{"data":{"norad_id":66925,"epoch":"2026-05-25T00:17:03.109056Z","epoch_age_seconds":77458,"freshness":"FRESH","line1":"1 66925U 25286A   26145.01184154  .00023754  00000+0  71185-3 0  9998","line2":"2 66925  53.1609   3.8240 0001395  86.1961 273.9201 15.34403584 27101","mean_motion":15.34403584,"eccentricity":0.0001395,"inclination_deg":53.1609,"raan_deg":3.824,"arg_perigee_deg":86.1961,"mean_anomaly_deg":273.9201,"bstar":0.00071185,"rev_number":2710,"period_min":93.847538875405,"perigee_km":461.73829209704,"apogee_km":463.64688355205,"semimajor_km":6840.8295878245,"source":"CELESTRAK","updated_at":"2026-05-25T13:38:21.384286Z"}}